Weather History for Leadville, CO

Change the Weather History Date:

Saturday, March 30, 2013

  Actual Average Record
Temperature  
Mean Temperature 33 °F -  
Max Temperature 43 °F 40 °F 53 °F (1978)
Min Temperature 22 °F 14 °F -11 °F (1987)
Degree Days  
Heating Degree Days 32 38  
Month to date heating degree days 1275 1235  
Since 1 July heating degree days 8817 8945  
Cooling Degree Days 0 0  
Month to date cooling degree days 0 0  
Year to date cooling degree days 0 0  
Moisture  
Dew Point 20 °F    
Average Humidity 61    
Maximum Humidity 92    
Minimum Humidity 30    
Precipitation  
Precipitation T in 0.04 in 0.23 in (1993)
Month to date precipitation 1.51 0.91  
Year to date precipitation 3.13 2.23  
Sea Level Pressure  
Sea Level Pressure 30.08 in    
Wind  
Wind Speed 9 mph (North)    
Max Wind Speed 25 mph    
Max Gust Speed 38 mph    
Visibility 10 miles    
Events Snow    
T = Trace of Precipitation, MM = Missing Value Source: NWS Daily Summary

Daily Weather History Graph

Daily Weather History Graph

Search for Another Location

Airport:

Trip Planner

Search our weather history database for the weather conditions in past years. The results will help you decide how hot, cold, wet, or windy it might be!

Date:

Astronomy

Mar. 30, 2013 Rise Set
Actual Time 6:52 AM MDT 7:27 PM MDT
Civil Twilight 6:25 AM MDT 7:54 PM MDT
Nautical Twilight 5:53 AM MDT 8:26 PM MDT
Astronomical Twilight 5:21 AM MDT 8:58 PM MDT
Moon 11:35 PM MDT (3/30) 8:51 AM MDT (3/30)
Length of Visible Light 13h 28m
Length of Day
12h 35m
Waning Gibbous, 86% of the Moon is Illuminated
Mar 30
Waning Gibbous
Apr 2
Last Quarter
Apr 10
New
Apr 18
First Quarter
Apr 25
Full

Hourly Weather History & Observations

Time (MDT) Temp. Windchill Dew Point Humidity Pressure Visibility Wind Dir Wind Speed Gust Speed Precip Events Conditions
12:48 AM 28.4 °F 24.6 °F 24.8 °F 86% 30.30 in 10.0 mi East 3.5 mph - N/A   Overcast
12:53 AM 28.9 °F 25.2 °F 24.1 °F 82% 30.07 in 10.0 mi ENE 3.5 mph - N/A   Overcast
1:25 AM 26.6 °F 21.2 °F 23.0 °F 86% 30.30 in 10.0 mi ENE 4.6 mph - N/A   Mostly Cloudy
1:53 AM 28.9 °F - 23.0 °F 78% 30.06 in 10.0 mi Calm Calm - N/A   Mostly Cloudy
2:53 AM 28.9 °F - 23.0 °F 78% 30.04 in 10.0 mi Calm Calm - N/A   Mostly Cloudy
3:53 AM 32.0 °F - 21.9 °F 66% 30.01 in 10.0 mi Calm Calm - N/A   Overcast
4:53 AM 28.0 °F 21.7 °F 21.0 °F 75% 30.05 in 10.0 mi ENE 5.8 mph - N/A   Mostly Cloudy
5:53 AM 30.0 °F 25.2 °F 21.0 °F 69% 30.09 in 10.0 mi North 4.6 mph - N/A   Mostly Cloudy
6:53 AM 30.9 °F - 19.9 °F 64% 30.08 in 10.0 mi Calm Calm - N/A   Mostly Cloudy
7:53 AM 30.9 °F 27.5 °F 21.0 °F 67% 30.10 in 10.0 mi NNE 3.5 mph - N/A   Overcast
8:53 AM 35.1 °F 29.3 °F 21.0 °F 57% 30.06 in 10.0 mi NW 6.9 mph - N/A   Scattered Clouds
9:53 AM 36.0 °F 29.0 °F 19.0 °F 50% 30.05 in 10.0 mi NNW 9.2 mph 24.2 mph N/A   Scattered Clouds
10:53 AM 37.0 °F 29.8 °F 16.0 °F 42% 30.03 in 10.0 mi NW 10.4 mph 23.0 mph N/A   Mostly Cloudy
11:53 AM 39.0 °F 32.3 °F 12.0 °F 33% 30.02 in 10.0 mi NW 10.4 mph 28.8 mph N/A   Partly Cloudy
12:53 PM 39.9 °F 30.0 °F 10.0 °F 29% 30.00 in 10.0 mi WNW 21.9 mph 35.7 mph N/A   Scattered Clouds
1:53 PM 39.9 °F 31.8 °F 12.0 °F 32% 29.99 in 10.0 mi NW 15.0 mph 29.9 mph N/A   Clear
2:53 PM 41.0 °F 32.5 °F 12.0 °F 31% 29.98 in 10.0 mi West 17.3 mph 28.8 mph N/A   Scattered Clouds
3:53 PM 41.0 °F 32.8 °F 12.9 °F 32% 29.94 in 10.0 mi West 16.1 mph 27.6 mph N/A   Scattered Clouds
4:53 PM 41.0 °F 32.2 °F 14.0 °F 33% 29.96 in 10.0 mi WNW 18.4 mph 38.0 mph N/A   Overcast
5:53 PM 39.9 °F 34.5 °F 17.1 °F 40% 29.96 in 10.0 mi NNW 8.1 mph - N/A   Partly Cloudy
6:53 PM 35.1 °F 24.5 °F 21.9 °F 59% 30.01 in 10.0 mi North 18.4 mph 31.1 mph N/A   Mostly Cloudy
7:00 PM 35.6 °F 26.2 °F 21.2 °F 56% 30.23 in 10.0 mi North 15.0 mph - N/A   Mostly Cloudy
7:53 PM 33.1 °F 23.9 °F 21.9 °F 64% 30.03 in 10.0 mi NNE 12.7 mph - N/A   Scattered Clouds
8:53 PM 30.0 °F 20.5 °F 25.0 °F 82% 30.06 in 10.0 mi North 11.5 mph - N/A   Scattered Clouds
9:05 PM 28.4 °F 17.0 °F 26.6 °F 93% 30.27 in 2.5 mi North 15.0 mph 23.0 mph 0.00 in Snow Light Snow
9:20 PM 28.4 °F 17.5 °F 26.6 °F 93% 30.28 in 9.0 mi North 13.8 mph - 0.00 in   Mostly Cloudy
9:53 PM 28.9 °F 22.8 °F 24.1 °F 82% 30.08 in 10.0 mi Variable 5.8 mph - 0.00 in   Scattered Clouds
10:53 PM 27.0 °F 21.6 °F 21.0 °F 78% 30.09 in 10.0 mi NE 4.6 mph - N/A   Clear
11:53 PM 21.9 °F 15.7 °F 19.0 °F 89% 30.09 in 10.0 mi ENE 4.6 mph - N/A   Clear